This is the latest recevied weather packets stored in our database for station/object N5JXS. If no packets are shown the sender has not sent any weather packets the latest 10 day(s).
| Time | Temp. | Humidity | Pressure | Rain* | Wind** | Luminosity | Snow |
|---|---|---|---|---|---|---|---|
| 1787930263 | 22.78° C | 43% | 1030.2 hPa | 0 mm | - | 39 W/m² | - |
| 1787929962 | 22.22° C | 45% | 1030.2 hPa | 0 mm | - | 54 W/m² | - |
| 1787929661 | 21.67° C | 45% | 1030.2 hPa | 0 mm | - | 45 W/m² | - |
| 1787929356 | 21.67° C | 46% | 1030.3 hPa | 0 mm | - | 38 W/m² | - |
| 1787929054 | 21.11° C | 45% | 1030.3 hPa | 0 mm | - | 39 W/m² | - |
| 1787928750 | 20.56° C | 47% | 1030.2 hPa | 0 mm | - | 44 W/m² | - |
| 1787928447 | 20° C | 49% | 1030.3 hPa | 0 mm | - | 50 W/m² | - |
| 1787928146 | 19.44° C | 54% | 1030.7 hPa | 0 mm | - | 55 W/m² | - |
| 1787927841 | 18.89° C | 52% | 1030.3 hPa | 0 mm | - | 63 W/m² | - |
| 1787927535 | 17.78° C | 54% | 1030.5 hPa | 0 mm | - | 61 W/m² | - |
| 1787927231 | 17.78° C | 59% | 1030.5 hPa | 0 mm | - | 88 W/m² | - |
| 1787926926 | 17.22° C | 61% | 1030.5 hPa | 0 mm | - | 37 W/m² | - |
| 1787926621 | 16.67° C | 63% | 1030.3 hPa | 0 mm | - | 31 W/m² | - |
| 1787926319 | 16.11° C | 64% | 1030.5 hPa | 0 mm | - | 28 W/m² | - |
| 1787926014 | 16.11° C | 65% | 1030.8 hPa | 0 mm | - | 29 W/m² | - |
| 1787925714 | 16.11° C | 65% | 1030.5 hPa | 0 mm | - | 35 W/m² | - |
| 1787925408 | 15.56° C | 63% | 1030.6 hPa | 0 mm | - | 26 W/m² | - |
| 1787925108 | 15.56° C | 64% | 1030.5 hPa | 0 mm | - | 23 W/m² | - |
| 1787924806 | 15.56° C | 64% | 1030.5 hPa | 0 mm | - | 26 W/m² | - |
| 1787924501 | 15.56° C | 64% | 1030.3 hPa | 0 mm | - | 26 W/m² | - |
| 1787924197 | 15° C | 64% | 1030.2 hPa | 0 mm | - | 32 W/m² | - |
| 1787923892 | 15° C | 65% | 1030.5 hPa | 0 mm | - | 20 W/m² | - |
| 1787923586 | 15° C | 64% | 1030.2 hPa | 0 mm | - | 23 W/m² | - |
| 1787923282 | 15° C | 63% | 1030.3 hPa | 0 mm | - | 27 W/m² | - |
| 1787922982 | 14.44° C | 62% | 1030.5 hPa | 0 mm | - | 28 W/m² | - |
* Rain latest hour (hover to see other rain measurements)
** Current wind speed in m/s (hover to see current wind gust speed)